QPF
0.02 0.02 0.02 0.02 0.01 0.01 0.01 0.02 0.02 0.02 0.03 0.03 0.03 0.03 0.03 0.02 0.02 0.02 0.02 0.02 0.01 0.01 0.01 0.01 0.01 0.02 0.02 0.01 0.01 0.01 0.01 0.01 0.01 0.01 0.01 0.02 0.03 0.03 0.03 0.03 0.03 0.03 0.03
0.02 0.02 0.01 0.02 0.01 0.01 0.01 0.01 0.02 0.02 0.03 0.03 0.04 0.04 0.03 0.03 0.03 0.02 0.02 0.02 0.02 0.01 0.01 0.01 0.01 0.02 0.02 0.02 0.01 0.01 0.01 0.01 0.01 0.01 0.01 0.01 0.02 0.02 0.02 0.03 0.03 0.03 0.03
0.01 0.01 0.01 0.02 0.01 0.01 0.01 0.01 0.01 0.02 0.02 0.03 0.03 0.03 0.03 0.03 0.02 0.02 0.02 0.02 0.02 0.02 0.02 0.02 0.02 0.03 0.03 0.02 0.02 0.01 0.01 0.01 0.01 0.02 0.02 0.02 0.02 0.02 0.02 0.02 0.02 0.02 0.02
0.01 0.01 0.01 0.01 0.01 0.00 0.01 0.01 0.01 0.02 0.02 0.03 0.03 0.03 0.02 0.03 0.03 0.03 0.02 0.02 0.03 0.03 0.04 0.04 0.04 0.04 0.03 0.03 0.02 0.02 0.01 0.01 0.01 0.01 0.02 0.02 0.02 0.03 0.02 0.01 0.01 0.02 0.02
0.02 0.01 0.01 0.01 0.01 0.01 0.01 0.02 0.02 0.02 0.03 0.04 0.04 0.03 0.03 0.03 0.03 0.04 0.03 0.02 0.02 0.03 0.04 0.03 0.03 0.04 0.04 0.04 0.03 0.02 0.02 0.01 0.01 0.01 0.02 0.02 0.02 0.02 0.02 0.01 0.01 0.01 0.01
0.02 0.01 0.01 0.01 0.01 0.02 0.02 0.03 0.03 0.03 0.03 0.04 0.05 0.03 0.03 0.02 0.04 0.04 0.04 0.04 0.03 0.04 0.05 0.05 0.06 0.05 0.04 0.03 0.03 0.03 0.03 0.02 0.01 0.01 0.01 0.01 0.01 0.01 0.02 0.01 0.02 0.01 0.01
0.02 0.02 0.01 0.01 0.01 0.02 0.03 0.05 0.04 0.04 0.04 0.04 0.04 0.03 0.02 0.02 0.02 0.02 0.02 0.02 0.02 0.03 0.03 0.04 0.05 0.06 0.04 0.03 0.03 0.02 0.02 0.02 0.02 0.01 0.01 0.01 0.01 0.01 0.02 0.01 0.01 0.01 0.01
0.02 0.02 0.01 0.01 0.02 0.02 0.03 0.05 0.06 0.06 0.05 0.05 0.05 0.04 0.02 0.02 0.02 0.01 0.01 0.01 0.01 0.01 0.01 0.02 0.02 0.03 0.03 0.03 0.03 0.02 0.01 0.01 0.02 0.02 0.02 0.02 0.02 0.02 0.02 0.01 0.01 0.01 0.01
0.03 0.02 0.02 0.02 0.02 0.02 0.02 0.03 0.04 0.04 0.04 0.04 0.04 0.04 0.03 0.03 0.03 0.02 0.02 0.02 0.02 0.02 0.02 0.03 0.02 0.02 0.02 0.03 0.03 0.02 0.02 0.02 0.02 0.03 0.03 0.03 0.03 0.02 0.02 0.02 0.02 0.01 0.01
0.02 0.01 0.02 0.02 0.02 0.02 0.02 0.02 0.02 0.03 0.03 0.03 0.03 0.03 0.03 0.03 0.03 0.03 0.02 0.02 0.02 0.02 0.02 0.02 0.03 0.02 0.02 0.02 0.02 0.02 0.02 0.03 0.03 0.02 0.03 0.03 0.03 0.03 0.03 0.02 0.02 0.02 0.01
0.03 0.02 0.02 0.02 0.02 0.02 0.02 0.03 0.03 0.03 0.03 0.03 0.03 0.03 0.02 0.02 0.03 0.04 0.03 0.02 0.02 0.03 0.02 0.02 0.03 0.04 0.02 0.02 0.02 0.02 0.02 0.02 0.03 0.03 0.04 0.04 0.03 0.02 0.02 0.02 0.02 0.02 0.02
0.04 0.03 0.03 0.02 0.02 0.02 0.02 0.02 0.03 0.05 0.05 0.05 0.05 0.04 0.03 0.02 0.02 0.03 0.04 0.04 0.04 0.04 0.03 0.02 0.02 0.03 0.03 0.02 0.03 0.03 0.03 0.04 0.03 0.03 0.03 0.03 0.02 0.02 0.02 0.02 0.02 0.02 0.02
0.07 0.05 0.03 0.03 0.02 0.02 0.03 0.03 0.03 0.04 0.06 0.05 0.05 0.04 0.04 0.03 0.03 0.03 0.03 0.03 0.03 0.03 0.03 0.02 0.02 0.03 0.03 0.03 0.03 0.03 0.03 0.03 0.03 0.02 0.02 0.02 0.02 0.02 0.03 0.03 0.03 0.02 0.02
0.05 0.05 0.03 0.02 0.02 0.03 0.04 0.04 0.03 0.04 0.04 0.04 0.05 0.06 0.06 0.06 0.04 0.02 0.02 0.02 0.03 0.02 0.02 0.03 0.03 0.03 0.03 0.04 0.04 0.03 0.03 0.02 0.02 0.02 0.01 0.01 0.01 0.02 0.01 0.02 0.03 0.03 0.03
0.04 0.04 0.04 0.03 0.04 0.04 0.05 0.06 0.05 0.06 0.05 0.04 0.04 0.05 0.07 0.07 0.07 0.06 0.04 0.03 0.02 0.02 0.03 0.03 0.03 0.03 0.02 0.02 0.03 0.03 0.02 0.02 0.02 0.02 0.02 0.02 0.02 0.02 0.02 0.02 0.02 0.02 0.03
0.03 0.03 0.04 0.03 0.04 0.05 0.06 0.07 0.07 0.08 0.08 0.07 0.07 0.06 0.06 0.06 0.06 0.06 0.06 0.07 0.06 0.05 0.04 0.04 0.03 0.03 0.02 0.01 0.02 0.02 0.01 0.01 0.02 0.02 0.02 0.02 0.01 0.02 0.01 0.01 0.02 0.03 0.03
0.02 0.03 0.03 0.03 0.02 0.03 0.04 0.06 0.07 0.09 0.08 0.07 0.08 0.07 0.06 0.08 0.07 0.06 0.05 0.07 0.08 0.08 0.07 0.06 0.04 0.03 0.03 0.01 0.01 0.01 0.01 0.01 0.01 0.02 0.02 0.02 0.01 0.01 0.01 0.01 0.01 0.02 0.03
0.01 0.02 0.03 0.03 0.03 0.03 0.04 0.06 0.07 0.09 0.09 0.07 0.07 0.07 0.06 0.06 0.07 0.08 0.08 0.08 0.08 0.07 0.06 0.06 0.06 0.05 0.04 0.03 0.02 0.02 0.02 0.02 0.02 0.01 0.02 0.02 0.02 0.02 0.01 0.01 0.01 0.01 0.02
0.01 0.02 0.03 0.03 0.03 0.03 0.04 0.05 0.06 0.07 0.07 0.06 0.06 0.06 0.06 0.06 0.07 0.08 0.08 0.08 0.07 0.07 0.06 0.04 0.04 0.04 0.04 0.04 0.03 0.03 0.03 0.02 0.02 0.02 0.02 0.02 0.02 0.01 0.01 0.01 0.01 0.01 0.01
0.01 0.02 0.03 0.03 0.02 0.02 0.03 0.04 0.04 0.04 0.04 0.03 0.02 0.03 0.03 0.03 0.03 0.04 0.06 0.07 0.07 0.07 0.06 0.05 0.04 0.03 0.02 0.02 0.02 0.02 0.03 0.02 0.02 0.02 0.02 0.02 0.01 0.01 0.01 0.01 0.01 0.01 0.01
0.02 0.02 0.02 0.03 0.02 0.02 0.02 0.03 0.04 0.03 0.02 0.02 0.01 0.02 0.03 0.03 0.02 0.02 0.03 0.04 0.05 0.07 0.08 0.07 0.06 0.05 0.03 0.03 0.02 0.02 0.02 0.02 0.02 0.02 0.02 0.02 0.02 0.02 0.02 0.02 0.02 0.02 0.02
0.02 0.02 0.02 0.02 0.02 0.02 0.01 0.02 0.03 0.02 0.02 0.02 0.02 0.02 0.02 0.03 0.03 0.03 0.03 0.04 0.04 0.06 0.06 0.07 0.07 0.06 0.05 0.05 0.04 0.03 0.03 0.02 0.02 0.02 0.02 0.01 0.01 0.01 0.01 0.01 0.02 0.02 0.02
0.01 0.01 0.02 0.02 0.02 0.02 0.02 0.02 0.03 0.03 0.03 0.03 0.02 0.02 0.02 0.02 0.02 0.02 0.03 0.03 0.05 0.06 0.07 0.07 0.06 0.06 0.05 0.04 0.04 0.04 0.03 0.02 0.02 0.02 0.02 0.02 0.01 0.01 0.01 0.01 0.01 0.02 0.02
0.01 0.01 0.01 0.02 0.02 0.02 0.02 0.03 0.03 0.03 0.03 0.03 0.03 0.03 0.03 0.03 0.02 0.02 0.02 0.02 0.03 0.04 0.05 0.05 0.05 0.05 0.04 0.03 0.02 0.03 0.03 0.02 0.02 0.02 0.01 0.01 0.01 0.01 0.01 0.01 0.01 0.01 0.02
0.00 0.00 0.01 0.02 0.02 0.02 0.02 0.02 0.03 0.03 0.04 0.04 0.03 0.03 0.03 0.03 0.02 0.02 0.02 0.01 0.01 0.01 0.02 0.02 0.02 0.02 0.02 0.02 0.02 0.02 0.02 0.02 0.02 0.01 0.01 0.01 0.01 0.01 0.01 0.01 0.01 0.01 0.01
0.00 0.00 0.01 0.01 0.02 0.01 0.01 0.02 0.02 0.03 0.04 0.04 0.03 0.03 0.03 0.03 0.03 0.03 0.02 0.02 0.02 0.02 0.01 0.01 0.01 0.01 0.01 0.01 0.01 0.01 0.01 0.01 0.01 0.01 0.01 0.01 0.01 0.01 0.01 0.01 0.01 0.01 0.01
MSLP
1016.23 1016.79 1017.39 1017.99 1018.53 1019.00 1019.39 1019.71 1019.99 1020.26 1020.55 1020.86 1021.20 1021.55 1021.91 1022.23 1022.52 1022.75 1022.92 1023.04 1023.12 1023.18 1023.22 1023.27 1023.32 1023.39 1023.48 1023.58 1023.71 1023.85 1024.00 1024.16 1024.33 1024.47 1024.57 1024.63 1024.62 1024.55 1024.41 1024.23 1024.01 1023.80 1023.61
1015.93 1016.48 1017.07 1017.65 1018.19 1018.67 1019.08 1019.44 1019.77 1020.08 1020.41 1020.76 1021.13 1021.51 1021.89 1022.24 1022.55 1022.81 1023.02 1023.19 1023.31 1023.40 1023.48 1023.54 1023.61 1023.68 1023.77 1023.87 1023.99 1024.14 1024.32 1024.51 1024.71 1024.91 1025.07 1025.18 1025.22 1025.19 1025.10 1024.94 1024.75 1024.55 1024.36
1015.59 1016.12 1016.69 1017.26 1017.79 1018.27 1018.71 1019.10 1019.47 1019.83 1020.21 1020.59 1020.99 1021.39 1021.79 1022.16 1022.49 1022.78 1023.03 1023.24 1023.41 1023.55 1023.67 1023.78 1023.88 1023.97 1024.07 1024.19 1024.33 1024.49 1024.69 1024.92 1025.16 1025.39 1025.60 1025.76 1025.86 1025.87 1025.81 1025.68 1025.51 1025.32 1025.12
1015.18 1015.71 1016.25 1016.80 1017.32 1017.81 1018.26 1018.70 1019.11 1019.53 1019.95 1020.37 1020.80 1021.23 1021.63 1022.02 1022.37 1022.68 1022.97 1023.22 1023.44 1023.64 1023.81 1023.97 1024.11 1024.24 1024.37 1024.51 1024.67 1024.86 1025.08 1025.33 1025.60 1025.87 1026.13 1026.33 1026.47 1026.52 1026.49 1026.39 1026.23 1026.04 1025.85
1014.69 1015.21 1015.75 1016.28 1016.80 1017.30 1017.78 1018.26 1018.72 1019.19 1019.66 1020.13 1020.59 1021.03 1021.45 1021.84 1022.20 1022.54 1022.84 1023.13 1023.40 1023.65 1023.89 1024.10 1024.29 1024.46 1024.62 1024.79 1024.96 1025.17 1025.41 1025.68 1025.97 1026.28 1026.56 1026.80 1026.98 1027.07 1027.07 1027.00 1026.86 1026.68 1026.48
1014.11 1014.63 1015.17 1015.70 1016.23 1016.75 1017.27 1017.80 1018.32 1018.85 1019.37 1019.88 1020.37 1020.83 1021.25 1021.64 1022.01 1022.35 1022.68 1022.99 1023.30 1023.60 1023.88 1024.14 1024.38 1024.59 1024.78 1024.97 1025.16 1025.38 1025.63 1025.91 1026.22 1026.54 1026.85 1027.12 1027.33 1027.45 1027.50 1027.46 1027.35 1027.19 1027.01
1013.43 1013.98 1014.53 1015.08 1015.63 1016.19 1016.76 1017.34 1017.93 1018.51 1019.09 1019.64 1020.15 1020.62 1021.04 1021.43 1021.79 1022.13 1022.47 1022.80 1023.14 1023.47 1023.79 1024.09 1024.36 1024.61 1024.82 1025.03 1025.23 1025.45 1025.70 1025.99 1026.30 1026.63 1026.96 1027.25 1027.49 1027.65 1027.74 1027.74 1027.67 1027.55 1027.40
1012.66 1013.25 1013.83 1014.41 1015.00 1015.61 1016.23 1016.88 1017.53 1018.18 1018.80 1019.38 1019.91 1020.39 1020.81 1021.19 1021.53 1021.87 1022.21 1022.55 1022.91 1023.27 1023.62 1023.95 1024.25 1024.52 1024.75 1024.96 1025.17 1025.39 1025.64 1025.92 1026.23 1026.57 1026.90 1027.21 1027.47 1027.67 1027.79 1027.84 1027.82 1027.75 1027.64
1011.83 1012.46 1013.09 1013.71 1014.35 1015.01 1015.70 1016.41 1017.12 1017.82 1018.49 1019.10 1019.64 1020.12 1020.53 1020.90 1021.23 1021.56 1021.89 1022.25 1022.61 1022.99 1023.37 1023.73 1024.05 1024.34 1024.59 1024.81 1025.02 1025.24 1025.48 1025.75 1026.06 1026.39 1026.73 1027.05 1027.33 1027.56 1027.72 1027.81 1027.84 1027.82 1027.77
1010.97 1011.65 1012.32 1012.99 1013.68 1014.40 1015.14 1015.91 1016.68 1017.43 1018.13 1018.76 1019.31 1019.79 1020.19 1020.55 1020.87 1021.19 1021.53 1021.89 1022.28 1022.67 1023.07 1023.46 1023.81 1024.11 1024.38 1024.62 1024.83 1025.05 1025.29 1025.55 1025.85 1026.17 1026.51 1026.83 1027.12 1027.37 1027.56 1027.69 1027.76 1027.79 1027.78
1010.12 1010.84 1011.54 1012.26 1012.99 1013.76 1014.56 1015.38 1016.19 1016.97 1017.70 1018.35 1018.90 1019.38 1019.78 1020.12 1020.45 1020.78 1021.12 1021.50 1021.90 1022.33 1022.76 1023.17 1023.55 1023.88 1024.17 1024.42 1024.64 1024.87 1025.10 1025.36 1025.65 1025.97 1026.30 1026.61 1026.91 1027.16 1027.36 1027.51 1027.61 1027.67 1027.71
1009.31 1010.06 1010.79 1011.54 1012.32 1013.13 1013.97 1014.82 1015.66 1016.46 1017.20 1017.86 1018.42 1018.89 1019.29 1019.64 1019.98 1020.31 1020.68 1021.08 1021.51 1021.97 1022.43 1022.87 1023.28 1023.64 1023.96 1024.23 1024.47 1024.71 1024.95 1025.21 1025.49 1025.80 1026.11 1026.42 1026.71 1026.95 1027.16 1027.31 1027.42 1027.50 1027.56
1008.58 1009.34 1010.09 1010.86 1011.67 1012.50 1013.37 1014.24 1015.10 1015.91 1016.65 1017.31 1017.87 1018.34 1018.75 1019.11 1019.46 1019.82 1020.22 1020.65 1021.12 1021.61 1022.10 1022.57 1023.01 1023.40 1023.74 1024.04 1024.30 1024.55 1024.80 1025.06 1025.34 1025.64 1025.94 1026.24 1026.51 1026.74 1026.93 1027.08 1027.19 1027.27 1027.33
1007.94 1008.70 1009.47 1010.25 1011.07 1011.92 1012.79 1013.67 1014.53 1015.34 1016.08 1016.72 1017.28 1017.76 1018.17 1018.55 1018.93 1019.32 1019.74 1020.20 1020.70 1021.21 1021.73 1022.23 1022.69 1023.10 1023.46 1023.78 1024.06 1024.32 1024.58 1024.85 1025.13 1025.43 1025.72 1026.00 1026.26 1026.49 1026.67 1026.81 1026.91 1026.99 1027.05
1007.39 1008.15 1008.92 1009.71 1010.54 1011.40 1012.27 1013.15 1013.99 1014.78 1015.50 1016.14 1016.69 1017.17 1017.59 1017.99 1018.38 1018.79 1019.24 1019.72 1020.23 1020.76 1021.29 1021.80 1022.27 1022.68 1023.05 1023.37 1023.66 1023.94 1024.21 1024.48 1024.77 1025.07 1025.37 1025.65 1025.91 1026.14 1026.32 1026.46 1026.56 1026.64 1026.70
1006.91 1007.68 1008.46 1009.27 1010.10 1010.95 1011.82 1012.67 1013.49 1014.26 1014.96 1015.57 1016.11 1016.58 1017.00 1017.41 1017.81 1018.24 1018.69 1019.18 1019.69 1020.21 1020.73 1021.22 1021.67 1022.07 1022.43 1022.75 1023.04 1023.31 1023.59 1023.88 1024.18 1024.49 1024.81 1025.11 1025.39 1025.64 1025.84 1026.01 1026.13 1026.23 1026.31
1006.49 1007.27 1008.07 1008.89 1009.73 1010.58 1011.42 1012.25 1013.04 1013.77 1014.43 1015.02 1015.53 1015.99 1016.41 1016.81 1017.21 1017.63 1018.08 1018.55 1019.03 1019.53 1020.00 1020.45 1020.87 1021.23 1021.56 1021.86 1022.14 1022.41 1022.70 1023.00 1023.32 1023.67 1024.01 1024.36 1024.68 1024.98 1025.23 1025.45 1025.62 1025.76 1025.87
1006.09 1006.90 1007.72 1008.55 1009.39 1010.23 1011.06 1011.85 1012.60 1013.29 1013.91 1014.45 1014.94 1015.37 1015.77 1016.16 1016.55 1016.95 1017.36 1017.80 1018.24 1018.68 1019.10 1019.49 1019.85 1020.17 1020.46 1020.72 1020.99 1021.26 1021.55 1021.87 1022.23 1022.61 1023.01 1023.41 1023.80 1024.17 1024.50 1024.79 1025.04 1025.25 1025.42
1005.68 1006.52 1007.37 1008.22 1009.06 1009.89 1010.68 1011.43 1012.13 1012.76 1013.33 1013.84 1014.28 1014.69 1015.06 1015.42 1015.79 1016.16 1016.53 1016.92 1017.31 1017.68 1018.03 1018.36 1018.65 1018.91 1019.16 1019.39 1019.64 1019.91 1020.22 1020.57 1020.96 1021.40 1021.86 1022.34 1022.81 1023.27 1023.69 1024.08 1024.41 1024.70 1024.94
1005.25 1006.12 1006.99 1007.84 1008.68 1009.48 1010.23 1010.94 1011.58 1012.16 1012.67 1013.13 1013.53 1013.91 1014.25 1014.58 1014.91 1015.25 1015.58 1015.92 1016.24 1016.55 1016.84 1017.10 1017.33 1017.55 1017.76 1017.97 1018.21 1018.49 1018.82 1019.21 1019.65 1020.14 1020.67 1021.23 1021.79 1022.34 1022.86 1023.34 1023.77 1024.15 1024.46
1004.76 1005.66 1006.53 1007.38 1008.19 1008.96 1009.67 1010.32 1010.90 1011.42 1011.88 1012.29 1012.66 1013.00 1013.32 1013.62 1013.93 1014.23 1014.52 1014.81 1015.09 1015.34 1015.58 1015.79 1015.98 1016.17 1016.36 1016.57 1016.82 1017.12 1017.48 1017.91 1018.40 1018.95 1019.55 1020.18 1020.82 1021.45 1022.06 1022.63 1023.14 1023.59 1023.98
1004.22 1005.11 1005.98 1006.81 1007.59 1008.31 1008.96 1009.55 1010.07 1010.54 1010.96 1011.33 1011.66 1011.98 1012.27 1012.56 1012.84 1013.12 1013.39 1013.64 1013.88 1014.11 1014.31 1014.50 1014.68 1014.86 1015.06 1015.29 1015.57 1015.91 1016.31 1016.79 1017.33 1017.94 1018.59 1019.28 1019.98 1020.67 1021.34 1021.97 1022.54 1023.05 1023.49
1003.61 1004.48 1005.32 1006.11 1006.84 1007.50 1008.10 1008.63 1009.11 1009.53 1009.91 1010.25 1010.56 1010.86 1011.15 1011.43 1011.70 1011.96 1012.22 1012.46 1012.69 1012.90 1013.10 1013.29 1013.48 1013.69 1013.93 1014.20 1014.53 1014.92 1015.38 1015.91 1016.50 1017.15 1017.85 1018.57 1019.31 1020.03 1020.74 1021.39 1022.00 1022.54 1022.99
1002.93 1003.76 1004.55 1005.29 1005.97 1006.58 1007.12 1007.61 1008.04 1008.43 1008.79 1009.11 1009.42 1009.72 1010.01 1010.29 1010.56 1010.83 1011.08 1011.32 1011.55 1011.77 1011.99 1012.21 1012.44 1012.70 1012.99 1013.33 1013.72 1014.18 1014.70 1015.28 1015.92 1016.61 1017.33 1018.07 1018.82 1019.55 1020.25 1020.91 1021.51 1022.05 1022.50
1002.19 1002.97 1003.71 1004.40 1005.02 1005.58 1006.08 1006.54 1006.95 1007.32 1007.67 1007.99 1008.31 1008.61 1008.91 1009.20 1009.48 1009.75 1010.02 1010.27 1010.52 1010.76 1011.01 1011.28 1011.57 1011.89 1012.25 1012.67 1013.14 1013.67 1014.25 1014.89 1015.57 1016.28 1017.02 1017.76 1018.49 1019.20 1019.88 1020.51 1021.08 1021.59 1022.02
1001.40 1002.14 1002.83 1003.47 1004.05 1004.57 1005.05 1005.49 1005.89 1006.26 1006.62 1006.96 1007.29 1007.61 1007.93 1008.23 1008.52 1008.80 1009.08 1009.35 1009.62 1009.89 1010.19 1010.51 1010.86 1011.26 1011.70 1012.20 1012.75 1013.35 1014.00 1014.68 1015.39 1016.12 1016.86 1017.58 1018.29 1018.96 1019.60 1020.18 1020.71 1021.17 1021.56
Thickness
5648 5646 5643 5641 5639 5638 5638 5637 5636 5636 5635 5634 5634 5633 5632 5630 5630 5628 5627 5626 5626 5626 5626 5625 5624 5624 5623 5623 5622 5621 5619 5616 5612 5613 5615 5616 5616 5616 5617 5617 5618 5618 5618
5643 5640 5637 5635 5632 5631 5630 5630 5630 5629 5629 5628 5627 5626 5625 5624 5623 5622 5621 5620 5619 5619 5619 5620 5619 5619 5618 5617 5616 5615 5613 5612 5609 5607 5608 5609 5609 5610 5610 5610 5611 5611 5611
5637 5634 5631 5628 5626 5625 5624 5624 5624 5623 5622 5621 5621 5620 5618 5617 5616 5616 5615 5613 5613 5613 5613 5614 5614 5613 5612 5611 5610 5609 5608 5608 5605 5603 5601 5602 5602 5603 5603 5603 5604 5604 5605
5630 5627 5624 5622 5621 5620 5619 5618 5617 5617 5615 5615 5614 5613 5612 5611 5610 5610 5608 5607 5607 5607 5607 5608 5608 5608 5607 5605 5605 5603 5602 5600 5599 5597 5595 5595 5595 5596 5596 5595 5595 5596 5597
5623 5620 5618 5617 5616 5614 5613 5612 5611 5610 5609 5608 5607 5606 5606 5605 5605 5603 5602 5601 5600 5599 5600 5601 5602 5603 5603 5601 5600 5597 5596 5594 5592 5591 5590 5589 5588 5588 5588 5588 5587 5588 5589
5617 5615 5613 5611 5609 5608 5607 5605 5603 5602 5601 5600 5599 5599 5598 5599 5599 5598 5596 5594 5593 5592 5592 5593 5595 5596 5595 5595 5594 5593 5592 5590 5588 5586 5585 5584 5583 5583 5583 5582 5580 5579 5580
5611 5609 5607 5606 5603 5602 5600 5598 5596 5594 5593 5592 5591 5591 5590 5591 5592 5590 5589 5587 5585 5584 5584 5585 5587 5587 5587 5586 5585 5585 5585 5586 5586 5584 5581 5580 5580 5580 5578 5576 5575 5574 5575
5605 5603 5602 5600 5597 5595 5593 5591 5589 5586 5585 5584 5583 5583 5583 5584 5584 5583 5582 5579 5578 5577 5577 5577 5577 5577 5579 5578 5576 5576 5576 5577 5579 5579 5579 5578 5578 5577 5575 5573 5571 5569 5569
5599 5597 5596 5594 5591 5589 5586 5584 5582 5580 5578 5577 5577 5576 5575 5576 5577 5576 5574 5571 5570 5569 5570 5569 5569 5569 5571 5571 5569 5568 5568 5569 5570 5571 5571 5571 5571 5570 5569 5566 5563 5562 5561
5594 5593 5591 5588 5586 5583 5581 5578 5576 5574 5572 5571 5570 5569 5569 5569 5569 5569 5568 5564 5562 5561 5561 5561 5561 5562 5562 5562 5560 5560 5559 5560 5561 5561 5561 5562 5562 5561 5561 5560 5558 5555 5553
5590 5587 5585 5582 5579 5578 5575 5572 5569 5567 5565 5564 5563 5563 5563 5563 5562 5562 5561 5558 5555 5554 5553 5552 5553 5554 5554 5554 5554 5553 5554 5554 5552 5552 5552 5552 5552 5552 5552 5552 5552 5550 5548
5584 5581 5578 5576 5574 5572 5568 5564 5562 5560 5559 5558 5557 5556 5556 5555 5554 5554 5554 5552 5550 5548 5547 5547 5547 5547 5546 5546 5546 5547 5546 5546 5544 5543 5543 5542 5542 5542 5543 5543 5543 5543 5543
5577 5574 5571 5569 5567 5565 5561 5558 5556 5554 5553 5553 5551 5549 5548 5547 5546 5547 5546 5545 5544 5542 5541 5541 5541 5540 5539 5538 5538 5538 5537 5536 5535 5535 5534 5534 5534 5534 5534 5534 5534 5534 5534
5570 5568 5565 5562 5559 5557 5556 5553 5550 5548 5548 5548 5546 5544 5542 5540 5539 5538 5537 5537 5536 5535 5534 5533 5533 5532 5530 5530 5529 5529 5528 5528 5527 5527 5527 5526 5525 5525 5525 5526 5525 5525 5525
5564 5561 5559 5557 5553 5550 5548 5546 5545 5545 5544 5544 5542 5540 5536 5535 5535 5534 5532 5530 5529 5528 5526 5524 5523 5522 5521 5520 5520 5520 5519 5519 5519 5519 5518 5517 5516 5516 5516 5517 5517 5516 5516
5557 5554 5552 5550 5547 5544 5542 5540 5539 5538 5539 5538 5537 5535 5534 5532 5530 5528 5526 5525 5523 5522 5518 5516 5515 5515 5514 5514 5513 5512 5511 5511 5511 5511 5510 5509 5508 5508 5508 5508 5507 5507 5507
5551 5549 5546 5544 5541 5539 5536 5534 5531 5530 5530 5529 5529 5528 5527 5525 5523 5521 5520 5518 5516 5514 5511 5509 5508 5508 5508 5507 5506 5505 5505 5504 5504 5503 5502 5501 5500 5500 5500 5499 5498 5498 5497
5546 5544 5541 5538 5536 5534 5531 5528 5525 5523 5521 5520 5520 5519 5518 5517 5515 5513 5512 5509 5506 5505 5503 5502 5502 5502 5501 5501 5500 5499 5498 5497 5496 5495 5494 5493 5492 5492 5491 5490 5489 5489 5488
5540 5538 5535 5533 5531 5528 5525 5522 5519 5517 5515 5513 5511 5510 5510 5508 5507 5505 5504 5502 5500 5499 5497 5496 5496 5495 5495 5494 5493 5492 5491 5490 5489 5487 5486 5485 5484 5484 5482 5482 5481 5481 5480
5533 5533 5530 5527 5524 5521 5518 5515 5512 5509 5507 5505 5504 5503 5501 5499 5497 5496 5496 5495 5494 5493 5492 5490 5490 5489 5488 5487 5486 5485 5484 5482 5481 5479 5479 5478 5477 5475 5474 5473 5472 5472 5471
5526 5525 5524 5520 5517 5515 5512 5509 5506 5504 5501 5500 5498 5497 5496 5494 5492 5491 5490 5490 5489 5488 5487 5485 5484 5483 5482 5480 5479 5478 5477 5475 5474 5473 5472 5470 5469 5467 5466 5465 5464 5463 5463
5518 5516 5515 5512 5510 5508 5505 5502 5499 5497 5495 5494 5492 5491 5490 5488 5487 5486 5485 5485 5483 5483 5482 5480 5479 5477 5476 5474 5473 5471 5470 5469 5467 5466 5464 5463 5461 5460 5458 5456 5455 5455 5454
5511 5509 5507 5505 5503 5501 5498 5496 5493 5491 5489 5487 5486 5484 5483 5481 5480 5480 5479 5479 5478 5476 5475 5474 5472 5470 5469 5468 5467 5466 5464 5463 5461 5460 5458 5456 5454 5453 5451 5449 5447 5447 5446
5503 5501 5499 5497 5494 5492 5490 5489 5487 5485 5484 5482 5480 5479 5477 5475 5474 5473 5472 5471 5470 5469 5468 5467 5466 5464 5462 5460 5459 5458 5457 5456 5455 5453 5452 5450 5448 5446 5443 5441 5440 5439 5438
5496 5494 5492 5489 5487 5485 5484 5482 5481 5479 5478 5476 5475 5473 5471 5469 5468 5467 5465 5464 5463 5462 5461 5460 5459 5457 5456 5454 5453 5452 5451 5449 5448 5446 5445 5443 5441 5439 5436 5435 5433 5431 5430
5489 5487 5484 5482 5480 5479 5477 5476 5474 5473 5471 5470 5469 5468 5466 5464 5463 5461 5459 5458 5457 5455 5454 5453 5452 5451 5449 5448 5447 5445 5444 5442 5440 5439 5437 5435 5433 5431 5429 5427 5426 5425 5423